This demonstration page uses our WeatherBlox Daily Observations layout. Learn more.

Left ArrowRight Arrow

34.74481, -87.66753

Hourly Observations for May 1, 2021

Temp ( °F °C ) Dew Point ( °F °C ) Humidity (%) Winds ( mph kmh ) Pressure ( in mb ) Visibility ( mi km ) Precip ( " mm )
12:53 am 00:53 Clear 58 14.4 49 9.4 72 72 Calm 30.11 1020 10 16 0.00 0.00
1:53 am 01:53 Clear 56 13.3 48 8.9 75 75 Calm 30.10 1019 10 16 0.00 0.00
2:53 am 02:53 Clear 54 12.2 48 8.9 80 80 Calm 30.09 1019 10 16 0.00 0.00
3:53 am 03:53 Clear 53 11.7 48 8.9 83 83 Calm 30.09 1019 10 16 0.00 0.00
4:53 am 04:53 Clear with Mist and Fog 51 10.6 47 8.3 86 86 Calm 30.10 1019 2 3 0.00 0.00
5:00 am 05:00 Clear with Mist and Fog 51 10.6 47 8.3 86 86 Calm 30.12 1020 1 2 0.00 0.00
5:24 am 05:24 Clear with Mist and Fog 51 10.6 47 8.3 86 86 Calm 30.12 1020 3 5 0.00 0.00
5:47 am 05:47 Clear with Mist and Fog 50 10 46 8 88 88 Calm 30.12 1020 2 3 0.00 0.00
5:53 am 05:53 Hazy 50 10 45 7.2 83 83 Calm 30.10 1019 1 1 0.00 0.00
6:00 am 06:00 Hazy 52 11.1 47 8.3 83 83 N 3 6 30.12 1020 2 3 0.00 0.00
6:07 am 06:07 Sunny 52 11.1 47 8.3 83 83 NNW 3 6 30.13 1020 10 16 0.00 0.00
6:53 am 06:53 Sunny 58 14.4 48 8.9 70 70 NE 7 11 30.12 1020 10 16 0.00 0.00
7:53 am 07:53 Sunny 62 16.7 48 8.9 60 60 NE 3 6 30.15 1021 10 16 0.00 0.00
8:53 am 08:53 Sunny 66 18.9 46 7.8 49 49 SE 7 11 30.16 1021 10 16 0.00 0.00
9:53 am 09:53 Sunny 69 20.6 46 7.8 44 44 E 7 11 30.15 1021 10 16 0.00 0.00
10:53 am 10:53 Sunny 73 22.8 47 8.3 40 40 E 3 6 30.14 1021 10 16 0.00 0.00
11:53 am 11:53 Sunny 75 23.9 45 7.2 34 34 E 7 11 30.12 1020 10 16 0.00 0.00
12:53 pm 12:53 Sunny 78 25.6 44 6.7 30 30 ENE 9 15 30.09 1019 10 16 0.00 0.00
1:53 pm 13:53 Sunny 79 26.1 47 8.3 32 32 NNE 8 13 30.06 1018 10 16 0.00 0.00
2:53 pm 14:53 Sunny 80 26.7 46 7.8 30 30 VRB 3 6 30.04 1017 10 16 0.00 0.00
3:53 pm 15:53 Sunny 80 26.7 44 6.7 28 28 VRB 5 7 30.01 1016 10 16 0.00 0.00
4:53 pm 16:53 Sunny 81 27.2 42 5.6 25 25 Calm 29.99 1016 10 16 0.00 0.00
5:53 pm 17:53 Sunny 80 26.7 43 6.1 27 27 ESE 5 7 29.98 1015 10 16 0.00 0.00
6:53 pm 18:53 Sunny 76 24.4 48 8.9 37 37 Calm 29.97 1015 10 16 0.00 0.00
7:53 pm 19:53 Clear 67 19.4 53 11.7 61 61 Calm 29.96 1015 10 16 0.00 0.00
8:53 pm 20:53 Clear 64 17.8 52 11.1 65 65 Calm 29.97 1015 10 16 0.00 0.00
9:53 pm 21:53 Clear 62 16.7 51 10.6 67 67 Calm 29.97 1015 10 16 0.00 0.00
10:53 pm 22:53 Clear 62 16.7 53 11.7 73 73 Calm 29.95 1014 10 16 0.00 0.00
11:53 pm 23:53 Clear 60 15.6 53 11.7 78 78 Calm 29.95 1014 10 16 0.00 0.00

Powered by AerisWeather